Вернуться в каталог

STARLINK-3919

АктивенСвязьVLEO
NORAD 52580·PAYLOAD·🇺🇸 United States

Запущен May 13, 2022 с Vandenberg Space Force Base

Loading…

Ближайшие Пролёты (ближайшие 24 часа)

TLE

СвежийSource: CelesTrak SupGP

Эпоха: Sep 15, 2026, 01:53 UTC

1 52580C 22051AW  26258.07895833  .00024779  00000+0  79694-3 0  2580
2 52580  53.1597 359.0685 0000970  91.9393 130.1855 15.31685276    16

Отслеживайте STARLINK-3919 в реальном времени с AllMySat

Download on the App Store